Weather reports worldwide

Advertisment
Aboyne, United Kingdom (3080): temperature & dewpoint: 11.10.2018 22:00:00 - 17.10.2018 22:00:00 (BST)Aboyne, United Kingdom (3080): temperature -20cm & temperature -100cm: 11.10.2018 22:00:00 - 17.10.2018 22:00:00 (BST)Aboyne, United Kingdom (3080): wind speed & gusts: 11.10.2018 22:00:00 - 17.10.2018 22:00:00 (BST)Aboyne, United Kingdom (3080): wind direction: 11.10.2018 22:00:00 - 17.10.2018 22:00:00 (BST)Aboyne, United Kingdom (3080): reduced air pressure: 11.10.2018 22:00:00 - 17.10.2018 22:00:00 (BST)Aboyne, United Kingdom (3080): visibility: 11.10.2018 22:00:00 - 17.10.2018 22:00:00 (BST)Aboyne, United Kingdom (3080): precipitation: 11.10.2018 22:00:00 - 17.10.2018 22:00:00 (BST)
Date & Time tt [°C] td [°C] tt -20cm [°C] tt -100cm [°C] ff [km/h] ff [kn] fx [km/h] fx [kn] dd ppp [hPa] vv [km] rr [mm]
17.10.2018 22:00:00 2,1 1,4 - - 4 2 - - SW 1024,7 40 0,0
17.10.2018 21:00:00 2,3 1,5 - - 8 4 - - W 1023,9 45 0,0
17.10.2018 20:00:00 3,7 0,6 - - 2 1 - - WSW 1022,8 45 0,0
17.10.2018 19:00:00 6,6 2,6 - - 2 1 - - WNW 1021,5 50 0,0
17.10.2018 18:00:00 9,2 2,5 - - 8 4 - - WNW 1020,3 50 0,0
17.10.2018 17:00:00 12,0 3,2 - - 11 6 - - WNW 1019,1 45 0,0
17.10.2018 16:00:00 12,1 2,2 - - 21 11 - - WNW 1018,3 50 0,0
17.10.2018 15:00:00 13,3 2,0 - - 13 7 - - NW 1017,4 40 0,0
17.10.2018 14:00:00 13,2 3,8 - - 11 6 - - W 1016,5 26 0,0
17.10.2018 13:00:00 13,4 4,8 - - 15 8 - - W 1016,0 45 0,0
17.10.2018 12:00:00 12,2 7,4 - - 11 6 - - N 1015,2 50 0,0
17.10.2018 11:00:00 10,6 7,6 - - 8 4 - - WNW 1015,1 45 0,0
17.10.2018 10:00:00 6,6 5,7 10,2 10,9 5 3 - - WSW 1014,6 40 0,0
17.10.2018 09:00:00 2,3 2,2 - - 2 1 - - WSW 1013,8 40 0,0
17.10.2018 08:00:00 1,2 0,6 - - 2 1 - - SE 1013,1 30 0,0
17.10.2018 07:00:00 2,1 1,1 - - 2 1 - - E 1012,0 30 0,0
17.10.2018 06:00:00 3,9 3,1 - - 5 3 - - S 1011,0 50 0,0
17.10.2018 05:00:00 5,7 3,5 - - 4 2 - - W 1010,1 45 0,0
17.10.2018 04:00:00 8,9 5,1 - - 11 6 - - W 1009,1 50 0,0
17.10.2018 03:00:00 9,6 7,2 - - 11 6 - - W 1008,3 40 0,0
17.10.2018 02:00:00 7,2 6,7 - - 5 3 - - ENE 1008,2 35 0,0
17.10.2018 01:00:00 9,1 6,3 - - 4 2 - - W 1007,8 35 0,0
17.10.2018 00:00:00 7,8 6,8 - - 5 3 - - SSE 1007,6 35 0,0
16.10.2018 23:00:00 6,9 4,2 - - 4 2 - - E 1007,5 40 0,0
16.10.2018 22:00:00 9,8 5,9 - - 8 4 - - WNW 1007,1 45 0,0
16.10.2018 21:00:00 11,6 6,7 - - 13 7 - - SW 1006,5 45 0,0
16.10.2018 20:00:00 11,7 6,4 - - 5 3 - - SSE 1006,2 50 0,0
16.10.2018 19:00:00 12,1 7,2 - - 15 8 - - SW 1006,1 50 0,0
16.10.2018 18:00:00 13,0 8,2 - - 15 8 - - WSW 1005,5 50 0,0
16.10.2018 17:00:00 14,0 8,5 - - 21 11 - - SW 1005,2 35 0,0
16.10.2018 16:00:00 13,8 8,0 - - 21 11 54 29 SSW 1004,9 45 0,0
16.10.2018 15:00:00 13,9 7,7 - - 29 16 57 31 SW 1005,1 50 0,0
16.10.2018 14:00:00 13,7 6,5 - - 37 20 72 39 SSW 1004,7 50 0,0
16.10.2018 13:00:00 12,6 5,1 - - 15 8 - - SE 1005,6 40 0,0
16.10.2018 12:00:00 12,0 6,6 - - 11 6 46 25 S 1006,7 50 0,0
16.10.2018 11:00:00 10,9 7,2 - - 18 10 - - S 1007,8 40 0,0
16.10.2018 10:00:00 10,5 7,4 10,2 11,0 5 3 - - E 1008,2 50 0,0
16.10.2018 09:00:00 8,8 6,3 - - 13 7 - - ESE 1009,2 45 0,0
16.10.2018 08:00:00 8,3 5,6 - - 8 4 - - SSE 1009,6 50 0,0
16.10.2018 07:00:00 7,8 5,1 - - 8 4 - - SSE 1010,0 50 0,0
16.10.2018 06:00:00 7,9 4,6 - - 15 8 - - SSE 1010,8 40 0,0
16.10.2018 05:00:00 7,9 4,8 - - 11 6 - - E 1011,5 50 0,0
16.10.2018 04:00:00 7,3 3,8 - - 8 4 - - E 1012,2 50 0,0
16.10.2018 03:00:00 7,1 3,4 - - 5 3 - - S 1012,8 50 0,0
16.10.2018 02:00:00 5,2 4,1 - - 4 2 - - S 1013,8 50 0,0
16.10.2018 01:00:00 6,4 4,3 - - 5 3 - - ENE 1014,2 45 0,0
16.10.2018 00:00:00 3,6 3,4 - - 4 2 - - E 1015,0 35 0,0
15.10.2018 23:00:00 3,1 2,7 - - 2 1 - - W 1015,5 30 0,0
15.10.2018 22:00:00 3,1 2,7 - - 5 3 - - E 1015,3 28 0,0
15.10.2018 21:00:00 2,6 1,7 - - 2 1 - - SE 1015,7 40 0,0
15.10.2018 20:00:00 3,5 2,7 - - 2 1 - - SW 1015,8 45 0,0
15.10.2018 19:00:00 5,6 2,7 - - 5 3 - - W 1015,1 45 0,0
15.10.2018 18:00:00 8,7 4,8 - - 2 1 - - SSW 1014,5 45 0,0
15.10.2018 17:00:00 12,7 5,9 - - 2 1 - - SSE 1014,0 50 0,0
15.10.2018 16:00:00 13,2 4,7 - - 9 5 - - ESE 1013,9 14 0,0
15.10.2018 15:00:00 14,5 4,1 - - 8 4 - - W 1014,0 40 0,0
15.10.2018 14:00:00 14,0 4,2 - - 5 3 - - SW 1014,4 40 0,0
15.10.2018 13:00:00 12,2 5,6 - - 8 4 - - SE 1014,8 18 0,0
15.10.2018 12:00:00 9,0 5,7 - - 8 4 - - E 1015,2 35 0,0
15.10.2018 11:00:00 3,6 3,4 - - 4 2 - - NE 1015,2 50 0,0
15.10.2018 10:00:00 3,0 2,8 10,5 11,2 2 1 - - WNW 1015,2 45 0,0
15.10.2018 09:00:00 1,8 1,7 - - 8 4 - - WNW 1014,9 50 0,2
15.10.2018 08:00:00 0,9 0,9 - - 9 5 - - NW 1014,6 50 0,0
15.10.2018 07:00:00 0,6 0,6 - - 2 1 - - W 1014,3 27 0,0
15.10.2018 06:00:00 0,3 0,3 - - 2 1 - - N 1014,2 45 0,0
15.10.2018 05:00:00 0,3 0,2 - - 4 2 - - NE 1013,7 35 0,0
15.10.2018 04:00:00 0,7 0,6 - - 4 2 - - WSW 1013,7 45 0,0
15.10.2018 03:00:00 0,2 0,2 - - 8 4 - - WSW 1013,9 35 0,0
15.10.2018 02:00:00 -1,4 -1,7 - - 2 1 - - ENE 1013,8 35 0,0
15.10.2018 01:00:00 -0,9 -1,2 - - 4 2 - - W 1013,5 35 0,0
15.10.2018 00:00:00 -0,2 -0,2 - - 5 3 - - W 1013,4 30 0,0
14.10.2018 23:00:00 -0,5 -0,8 - - 5 3 - - WNW 1013,0 45 0,0
14.10.2018 22:00:00 0,7 0,6 - - 8 4 - - WNW 1012,3 30 0,0
14.10.2018 21:00:00 0,9 0,4 - - 2 1 - - NE 1011,9 35 0,0
14.10.2018 20:00:00 1,7 1,0 - - 4 2 - - W 1011,1 50 0,0
14.10.2018 19:00:00 4,0 2,7 - - 4 2 - - SE 1010,1 45 0,0
14.10.2018 18:00:00 7,9 4,8 - - 4 2 - - E 1009,2 8 0,0
14.10.2018 17:00:00 9,9 6,0 - - 8 4 - - SE 1008,3 2,7 0,0
14.10.2018 16:00:00 10,4 5,8 - - 4 2 - - SE 1008,3 7 0,0
14.10.2018 15:00:00 11,4 5,0 - - 4 2 - - SW 1008,3 40 0,0
14.10.2018 14:00:00 8,6 4,7 - - 2 1 - - ENE 1008,3 50 0,0
14.10.2018 13:00:00 8,2 5,3 - - 4 2 - - ESE 1008,0 45 0,0
14.10.2018 12:00:00 7,9 4,4 - - 2 1 - - ENE 1007,9 45 0,0
14.10.2018 11:00:00 7,3 5,5 - - 5 3 - - E 1007,6 45 0,0
14.10.2018 10:00:00 6,5 5,5 11,0 11,2 2 1 - - N 1007,4 50 0,0
14.10.2018 09:00:00 5,4 4,3 - - 5 3 - - WSW 1006,9 50 0,0
14.10.2018 08:00:00 6,5 4,1 - - 5 3 - - W 1005,8 50 0,0
14.10.2018 07:00:00 7,2 5,1 - - 15 8 - - WNW 1004,9 50 0,0
14.10.2018 06:00:00 8,2 5,2 - - 15 8 - - W 1003,6 50 0,0
14.10.2018 05:00:00 8,1 6,1 - - 5 3 - - WNW 1002,5 30 0,0
14.10.2018 04:00:00 8,3 6,2 - - 15 8 - - WNW 1001,1 12 0,0
14.10.2018 03:00:00 9,0 6,2 - - 15 8 - - WNW 999,9 50 0,0
14.10.2018 02:00:00 9,4 6,2 - - 11 6 - - WNW 998,7 50 0,0
14.10.2018 01:00:00 9,5 6,9 - - 16 9 - - WNW 997,2 50 0,0
14.10.2018 00:00:00 12,8 9,7 - - 22 12 54 29 WSW 994,8 50 0,0
13.10.2018 23:00:00 14,4 10,5 - - 28 15 - - WSW 993,7 50 0,0
13.10.2018 22:00:00 15,1 12,7 - - 13 7 - - WSW 992,8 50 0,0
13.10.2018 21:00:00 10,1 10,0 - - 5 3 - - WSW 992,5 27 0,6
13.10.2018 20:00:00 10,0 9,9 - - 5 3 - - W 993,3 6 2,2
13.10.2018 19:00:00 9,8 9,7 - - 5 3 - - W 994,3 3,9 1,6
13.10.2018 18:00:00 9,8 9,6 - - 4 2 - - SW 995,0 2,9 1,2
13.10.2018 17:00:00 9,7 9,5 - - 4 2 - - WNW 995,8 6 2,0
13.10.2018 16:00:00 9,8 9,5 - - 4 2 - - S 996,9 6 2,4
13.10.2018 15:00:00 10,1 9,6 - - 5 3 - - WSW 998,0 3,6 2,6
13.10.2018 14:00:00 10,2 9,5 - - 8 4 - - NNW 999,1 3,5 2,0
13.10.2018 13:00:00 10,5 9,8 - - 5 3 - - NNW 1000,1 9 2,2
13.10.2018 12:00:00 10,2 9,6 - - 5 3 - - ENE 1001,0 10 2,2
13.10.2018 11:00:00 10,5 8,2 - - 9 5 - - ENE 1001,4 11 0,0
13.10.2018 10:00:00 10,5 7,8 11,2 11,2 5 3 - - ENE 1001,6 40 0,0
13.10.2018 09:00:00 10,0 7,0 - - 4 2 - - SE 1002,3 40 0,0
13.10.2018 08:00:00 10,2 6,6 - - 5 3 - - ENE 1001,7 30 0,0
13.10.2018 07:00:00 11,9 6,3 - - 18 10 - - SSW 1001,0 30 0,0
13.10.2018 06:00:00 11,4 6,7 - - 16 9 - - WSW 1001,4 35 0,0
13.10.2018 05:00:00 11,5 6,6 - - 16 9 - - SSW 999,7 30 0,0
13.10.2018 04:00:00 12,0 6,8 - - 22 12 - - SSW 999,8 40 0,0
13.10.2018 03:00:00 12,3 7,0 - - 26 14 - - SW 999,0 35 0,0
13.10.2018 02:00:00 12,4 7,0 - - 24 13 - - W 998,3 40 0,0
13.10.2018 01:00:00 12,6 7,2 - - 26 14 - - WSW 996,8 45 0,0
13.10.2018 00:00:00 13,0 7,4 - - 18 10 50 27 WSW 995,5 45 0,0
12.10.2018 23:00:00 13,0 7,1 - - 26 14 54 29 SW 994,4 50 0,2
12.10.2018 22:00:00 13,1 7,5 - - 31 17 55 30 SW 993,1 40 0,0
12.10.2018 21:00:00 12,6 7,6 - - 22 12 54 29 SW 992,1 50 0,0
12.10.2018 20:00:00 12,4 9,9 - - 18 10 - - SW 991,3 22 0,0
12.10.2018 19:00:00 12,1 9,9 - - 11 6 - - WSW 990,0 45 0,0
12.10.2018 18:00:00 11,6 10,1 - - 5 3 - - NW 989,2 17 1,0
12.10.2018 17:00:00 12,0 10,0 - - 8 4 - - WSW 989,3 12 2,4
12.10.2018 16:00:00 12,6 11,3 - - 8 4 - - SE 990,7 8 6,2
12.10.2018 15:00:00 12,8 10,8 - - 18 10 - - SE 991,6 8 2,2
12.10.2018 14:00:00 15,4 9,2 - - 16 9 46 25 SSW 992,2 17 0,0
12.10.2018 13:00:00 15,4 8,3 - - 21 11 63 34 SSW 992,3 15 0,0
12.10.2018 12:00:00 15,1 9,8 - - 16 9 61 33 S 991,4 28 0,2
12.10.2018 11:00:00 13,9 10,1 - - 28 15 74 40 SSE 991,7 28 0,0
12.10.2018 10:00:00 11,9 9,9 11,2 11,2 29 16 74 40 SSE 991,1 6 0,4
12.10.2018 09:00:00 11,0 8,8 - - 41 22 74 40 SE 991,9 29 0,8
12.10.2018 08:00:00 10,1 8,5 - - 28 15 50 27 SE 993,7 7 1,2
12.10.2018 07:00:00 9,6 8,3 - - 13 7 - - ESE 994,6 40 0,0
12.10.2018 06:00:00 7,9 7,9 - - 11 6 - - ESE 996,3 24 0,0
12.10.2018 05:00:00 4,0 3,9 - - 4 2 - - SE 996,8 5 0,0
12.10.2018 04:00:00 4,0 3,8 - - 4 2 - - ENE 998,9 0,5 0,0
12.10.2018 03:00:00 4,1 3,6 - - 4 2 - - E 1000,1 0,7 0,0
12.10.2018 02:00:00 5,7 4,8 - - 5 3 - - E 1000,1 21 0,0
12.10.2018 01:00:00 8,0 6,4 - - 8 4 - - SW 999,6 50 0,0
12.10.2018 00:00:00 10,3 7,4 - - 15 8 - - SSW 999,7 45 0,0
11.10.2018 23:00:00 11,3 9,5 - - 4 2 - - WNW 999,4 50 0,0
11.10.2018 22:00:00 12,3 11,4 - - 4 2 - - SE 998,8 23 0,0

tt = temperature
td = dewpoint
tt -20cm = temperature -20cm
tt -100cm = temperature -100cm
ff = wind speed
fx = gusts
dd = wind direction
ppp = reduced air pressure
vv = visibility
rr = precipitation

Next stations